MAST
1 31126U 07012K 15196.85943816 .00000330 00000-0 80962-4 0 9994
2 31126 097.9627 163.5946 0090179 205.6677 211.1007 14.56094581437669
CAPE1
1 31130U 07012P 15197.39867156 .00000395 00000-0 95566-4 0 9998
2 31130 097.9845 161.3621 0096077 224.1696 135.1803 14.55547291437133
COMPASS
1 32787U 08021E 15197.13596242 .00002108 00000-0 21916-3 0 9996
2 32787 097.6491 243.9165 0011923 322.5340 037.5046 14.90875207390820
AAUSAT2
1 32788U 08021F 15197.10959390 .00001658 00000-0 16911-3 0 9999
2 32788 097.6501 245.4537 0011317 319.3934 040.6440 14.91934545390918
DO-64
1 32789U 08021G 15197.13430067 .00005015 00000-0 40450-3 0 9994
2 32789 097.6774 256.8227 0010100 311.2939 101.2779 15.00292710391426
CO-66
1 32791U 08021J 15197.12477017 .00001528 00000-0 16838-3 0 9990
2 32791 097.6489 241.6649 0012930 329.7034 030.3435 14.88894472390625
RS-30
1 32953U 08025A 15197.29114403 .00000010 00000-0 -13620-7 0 9995
2 32953 082.5034 316.1387 0018866 020.7616 339.4229 12.43061963324226
METEOR-M
1 35865U 09049A 15197.34980013 .00000055 00000-0 43885-4 0 9992
2 35865 098.4986 236.6488 0003231 051.0285 008.2194 14.22038451302357
RS-38
1 35869U 09049E 15197.15490057 .00000007 00000-0 21894-4 0 9992
2 35869 098.4892 236.0756 0005265 037.5181 322.6379 14.22302431302374
JUGNU
1 37839U 11058B 15196.91314228 .00000357 00000-0 48754-4 0 9994
2 37839 019.9626 028.3694 0018997 003.0381 139.3177 14.12477725194281
SRMSAT
1 37841U 11058D 15196.96666307 .00000345 00000-0 44885-4 0 9998
2 37841 019.9729 055.3317 0011819 288.3236 211.3127 14.10487779194018
RAX-2
1 37853U 11061D 15197.17758620 .00004297 00000-0 26568-3 0 9996
2 37853 101.7081 062.4738 0194924 350.9416 120.8235 14.96472930201440
AUBIESAT
1 37854U 11061E 15196.69497137 .00005015 00000-0 29997-3 0 9994
2 37854 101.7151 065.4270 0185605 347.2161 052.2908 14.98650696201494
HRBE
1 37855U 11061F 15196.51996281 .00005307 00000-0 31769-3 0 9994
2 37855 101.7147 063.6815 0193896 350.7910 008.9761 14.97466027201393
HORYU-2
1 38340U 12025D 15196.89149354 .00001130 00000-0 17842-3 0 9993
2 38340 098.3151 167.5639 0012281 012.1219 348.0282 14.74383640169760
RS-40
1 38735U 12041C 15197.33968796 .00000040 00000-0 21992-3 0 9998
2 38735 082.4735 041.8019 0017389 114.4256 245.8638 12.42569087134537
PROITERES
1 38756U 12047B 15197.42020348 .00000707 00000-0 11074-3 0 9999
2 38756 098.2220 297.2052 0011604 199.1041 160.9730 14.75864855153310
BEESAT-3
1 39134U 13015E 15196.51770346 .00005417 00000-0 31670-3 0 9992
2 39134 064.8741 326.8512 0030005 247.8964 111.8973 15.12543950122984
BEESAT-2
1 39136U 13015G 15197.13369037 .00004269 00000-0 26381-3 0 9991
2 39136 064.8746 327.5184 0030199 247.1228 112.6706 15.10858481123030
ZACUBE-1
1 39417U 13066B 15196.73360839 .00001205 00000-0 16190-3 0 9999
2 39417 097.7284 258.1770 0061389 044.7592 315.8550 14.79796952 88856
TRITON-1
1 39427U 13066M 15196.72703942 .00001131 00000-0 19136-3 0 9996
2 39427 097.7131 245.7958 0117166 076.2887 285.1330 14.66712763 88051
DELFIN3XT
1 39428U 13066N 15197.09753384 .00001710 00000-0 28884-3 0 9996
2 39428 097.7132 244.3997 0125696 080.1794 281.3576 14.65495356 87974
GOMX-1
1 39430U 13066Q 15197.10215555 .00001470 00000-0 27888-3 0 9990
2 39430 097.7041 238.1244 0155125 098.6341 263.2473 14.58123433 87593
MO-76
1 39436U 13066W 15196.73980359 .00014517 00000-0 94271-3 0 9991
2 39436 097.7452 273.0811 0020920 011.2246 348.9444 15.07970583 89796
LO-74
1 39440U 13066AA 15197.10969378 .00001091 00000-0 16206-3 0 9991
2 39440 097.7225 253.6297 0083188 055.1034 305.7958 14.74609157 88595
PUCPSAT-1
1 39442U 13066AC 15197.19055030 .00001573 00000-0 17253-3 0 9991
2 39442 097.7381 266.5462 0033638 029.9513 330.3620 14.88718098 88188
SPROUT
1 39770U 14029E 15197.04387725 .00002860 00000-0 35036-3 0 9997
2 39770 097.8723 293.4688 0011298 107.5279 252.7119 14.83911720 61916
POPSAT-HIP1
1 40028U 14033U 15197.45738286 .00001860 00000-0 21292-3 0 9995
2 40028 097.9515 097.8447 0015796 085.0998 275.1990 14.87108487 58136
EO-80
1 40032U 14033Y 15197.25745559 .00001303 00000-0 15227-3 0 9992
2 40032 097.9492 097.2935 0013823 083.1568 277.1220 14.86787532 58100
VELOX-1
1 40057U 14034E 15197.42210799 .00001835 00000-0 27440-3 0 9992
2 40057 098.2149 276.0036 0012332 140.0964 220.1165 14.75929512 56193
DAURIA DX 1
1 40071U 14037C 15197.32608131 .00000862 00000-0 12018-3 0 9995
2 40071 098.3551 269.9398 0009491 139.7350 220.4567 14.80440936 55108
UKUBE-1
1 40074U 14037F 15197.39406271 .00001834 00000-0 23672-3 0 9994
2 40074 098.3565 270.8835 0005618 140.2904 219.8722 14.82290622 55160
HODOYOSHI-1
1 40299U 14070B 15197.39458569 .00003927 00000-0 18751-3 0 9994
2 40299 097.4557 278.5465 0014030 037.5781 089.7370 15.19549842 38259
CHUBUSAT-1
1 40300U 14070C 15197.43196907 .00004388 00000-0 21854-3 0 9997
2 40300 097.4526 277.7867 0023118 036.2946 024.7013 15.17864443 38215
QSAT-EOS
1 40301U 14070D 15197.42944499 .00008357 00000-0 41506-3 0 9990
2 40301 097.4488 277.1041 0032755 036.0287 092.5093 15.17449094 38171
TSUBAME
1 40302U 14070E 15197.41565225 .00005053 00000-0 28167-3 0 9994
2 40302 097.4466 275.7840 0044027 038.9602 321.4797 15.13199992 38097
FIREBIRD FU3
1 40377U 15003B 15197.04611893 .00006968 00000-0 34501-3 0 9990
2 40377 099.1166 235.8609 0157571 158.7001 202.0880 15.07916705 24902
FIREBIRD FU4
1 40378U 15003C 15197.04366213 .00006775 00000-0 33516-3 0 9995
2 40378 099.1167 235.8653 0157827 158.6556 202.1349 15.07929319 24907
GRIFEX
1 40379U 15003D 15197.29357655 .00004691 00000-0 23823-3 0 9998
2 40379 099.1174 236.0474 0159090 159.1804 201.5998 15.07157971 24939
LAMBDA-SAT
1 40458U 98067GB 15136.30676273 .20783109 12527-4 14817-2 0 9995
2 40458 051.6075 233.7697 0010355 318.5347 043.1720 16.39926603 21161
NO-84
1 40654U 15197.21651472 .00017173 00000-0 44252-3 0 00675
2 40654 054.9961 094.6054 0242964 321.9571 036.4482 15.14529138008574
NO-83
1 40655U 15197.22702684 .00010904 00000-0 28868-3 0 00679
2 40655 055.0072 094.7520 0244735 321.7098 036.6733 15.13950686008575
/EX
1
0
SB KEPS @ AMSAT $ORB15190.N
2Line Orbital Elements 15190.AMSAT
HR AMSAT ORBITAL ELEMENTS FOR AMATEUR SATELLITES IN NASA FORMAT
FROM WA5QGD FORT WORTH,TX July 9, 2015
BID: ORB15190.N
DECODE 2-LINE ELSETS WITH THE FOLLOWING KEY:
1 AAAAAU 00 0 0 BBBBB.BBBBBBBB .CCCCCCCC 00000-0 00000-0 0 DDDZ
2 AAAAA EEE.EEEE FFF.FFFF GGGGGGG HHH.HHHH III.IIII JJ.JJJJJJJJKKKKKZ
KEY: A-CATALOGNUM B-EPOCHTIME C-DECAY D-ELSETNUM E-INCLINATION F-RAAN
G-ECCENTRICITY H-ARGPERIGEE I-MNANOM J-MNMOTION K-ORBITNUM Z-CHECKSUM
TO ALL RADIO AMATEURS BT
AO-07
1 07530U 74089B 15189.85897966 -.00000022 00000-0 13331-3 0 9994
2 07530 101.5218 164.7568 0011461 261.2238 128.3200 12.53615263859977
FO-29
1 24278U 96046B 15190.49245392 -.00000022 00000-0 14144-4 0 9995
2 24278 098.5420 156.2683 0350776 013.1688 092.7766 13.53054554933040
SO-33
1 25509U 98061B 15190.14080543 .00000309 00000-0 46471-4 0 9994
2 25509 031.4335 127.0363 0348081 265.8609 090.2167 14.30017558872561
RS-22
1 27939U 03042A 15190.46368036 .00000544 00000-0 10742-3 0 9991
2 27939 097.8447 351.3683 0012477 322.0696 037.9634 14.66090095629457
HO-68
1 36122U 09072B 15190.43707456 -.00000059 00000-0 -43517-4 0 9994
2 36122 100.1922 234.4485 0008179 068.8444 291.3544 13.16328177267383
AO-73
1 39444U 13066AE 15189.72531038 .00001937 00000-0 25288-3 0 9991
2 39444 097.7293 251.6920 0061160 066.2962 294.4651 14.80316907 86603
